Time,TemperatureF,DewpointF,PressureIn,WindDirection,WindDirectionDegrees,WindSpeedMPH,WindSpeedGustMPH,Humidity,HourlyPrecipIn,Conditions,Clouds,dailyrainin,SolarRadiationWatts/m^2,SoftwareType,DateUTC
2013-08-01 00:04:00,59.6,57.0,30.03,SW,228,0.0,0.0,92,0.00,,,0.00,0,weatherlink.com 1.10,2013-08-01 04:04:00,
2013-08-01 00:20:00,59.3,57.0,30.03,SW,228,0.0,0.0,92,0.00,,,0.00,0,weatherlink.com 1.10,2013-08-01 04:20:00,
2013-08-01 00:37:00,59.1,57.0,30.03,SW,228,0.0,2.0,93,0.00,,,0.00,0,weatherlink.com 1.10,2013-08-01 04:37:00,
2013-08-01 00:53:00,58.8,57.0,30.03,SW,228,0.0,0.0,93,0.00,,,0.00,0,weatherlink.com 1.10,2013-08-01 04:53:00,
2013-08-01 01:08:00,58.6,57.0,30.02,SW,228,0.0,0.0,93,0.00,,,0.00,0,weatherlink.com 1.10,2013-08-01 05:08:00,
2013-08-01 01:24:00,58.4,56.0,30.02,SW,228,0.0,0.0,93,0.00,,,0.00,0,weatherlink.com 1.10,2013-08-01 05:24:00,
2013-08-01 01:40:00,58.2,57.0,30.01,SW,228,0.0,0.0,94,0.00,,,0.00,0,weatherlink.com 1.10,2013-08-01 05:40:00,
2013-08-01 01:57:00,58.1,56.0,30.01,SW,228,0.0,0.0,94,0.00,,,0.00,0,weatherlink.com 1.10,2013-08-01 05:57:00,
2013-08-01 02:13:00,58.0,56.0,30.00,SW,228,0.0,0.0,94,0.00,,,0.00,0,weatherlink.com 1.10,2013-08-01 06:13:00,
2013-08-01 02:28:00,57.9,56.0,30.00,SW,228,0.0,0.0,94,0.00,,,0.00,0,weatherlink.com 1.10,2013-08-01 06:28:00,
2013-08-01 02:44:00,57.7,56.0,30.00,SW,228,0.0,0.0,94,0.00,,,0.00,0,weatherlink.com 1.10,2013-08-01 06:44:00,
2013-08-01 03:00:00,57.5,56.0,29.99,SW,228,0.0,0.0,94,0.00,,,0.00,0,weatherlink.com 1.10,2013-08-01 07:00:00,
2013-08-01 03:17:00,57.3,56.0,29.99,SW,228,0.0,0.0,94,0.00,,,0.00,0,weatherlink.com 1.10,2013-08-01 07:17:00,
2013-08-01 03:33:00,57.2,56.0,29.98,SW,228,0.0,0.0,95,0.00,,,0.00,0,weatherlink.com 1.10,2013-08-01 07:33:00,
2013-08-01 03:49:00,57.1,56.0,29.98,SW,228,0.0,0.0,95,0.00,,,0.00,0,weatherlink.com 1.10,2013-08-01 07:49:00,
2013-08-01 04:04:00,57.0,56.0,29.98,SW,228,0.0,0.0,95,0.00,,,0.00,0,weatherlink.com 1.10,2013-08-01 08:04:00,
2013-08-01 04:20:00,56.8,55.0,29.97,SW,228,0.0,0.0,95,0.00,,,0.00,0,weatherlink.com 1.10,2013-08-01 08:20:00,
2013-08-01 04:37:00,56.7,55.0,29.97,SW,228,0.0,0.0,95,0.00,,,0.00,0,weatherlink.com 1.10,2013-08-01 08:37:00,
2013-08-01 05:26:00,56.3,55.0,29.97,SW,228,0.0,0.0,96,0.00,,,0.00,0,weatherlink.com 1.10,2013-08-01 09:26:00,
2013-08-01 06:13:00,56.3,55.0,29.98,SW,228,0.0,0.0,96,0.00,,,0.00,26,weatherlink.com 1.10,2013-08-01 10:13:00,
2013-08-01 06:29:00,56.4,56.0,29.97,SW,228,0.0,0.0,97,0.00,,,0.00,54,weatherlink.com 1.10,2013-08-01 10:29:00,
2013-08-01 07:18:00,58.9,58.0,29.97,SW,228,0.0,0.0,98,0.00,,,0.00,93,weatherlink.com 1.10,2013-08-01 11:18:00,
2013-08-01 07:33:00,60.1,60.0,29.97,SW,228,0.0,0.0,99,0.00,,,0.00,127,weatherlink.com 1.10,2013-08-01 11:33:00,
2013-08-01 07:49:00,61.8,62.0,29.97,SW,228,0.0,2.0,99,0.00,,,0.00,271,weatherlink.com 1.10,2013-08-01 11:49:00,
2013-08-01 08:05:00,64.9,65.0,29.97,SSE,157,4.0,6.0,99,0.00,,,0.00,454,weatherlink.com 1.10,2013-08-01 12:05:00,
2013-08-01 08:22:00,67.5,66.0,29.97,SE,142,3.0,6.0,94,0.00,,,0.00,176,weatherlink.com 1.10,2013-08-01 12:22:00,
2013-08-01 08:38:00,67.3,64.0,29.97,South,171,0.0,4.0,89,0.00,,,0.00,220,weatherlink.com 1.10,2013-08-01 12:38:00,
2013-08-01 08:53:00,68.7,66.0,29.96,SSE,162,0.0,6.0,92,0.00,,,0.00,188,weatherlink.com 1.10,2013-08-01 12:53:00,
2013-08-01 09:09:00,68.9,66.0,29.95,SE,145,1.0,4.0,91,0.00,,,0.00,148,weatherlink.com 1.10,2013-08-01 13:09:00,
2013-08-01 09:26:00,68.6,66.0,29.95,SSE,166,4.0,6.0,91,0.00,,,0.00,160,weatherlink.com 1.10,2013-08-01 13:26:00,
2013-08-01 09:58:00,73.3,69.0,29.94,SSE,148,1.0,8.0,87,0.00,,,0.00,691,weatherlink.com 1.10,2013-08-01 13:58:00,
2013-08-01 10:14:00,74.7,70.0,29.94,SSW,198,1.0,10.0,84,0.00,,,0.00,483,weatherlink.com 1.10,2013-08-01 14:14:00,
2013-08-01 10:31:00,73.0,68.0,29.93,SE,140,4.0,8.0,85,0.00,,,0.00,466,weatherlink.com 1.10,2013-08-01 14:31:00,
2013-08-01 10:46:00,74.1,69.0,29.93,SE,139,10.0,10.0,83,0.00,,,0.00,847,weatherlink.com 1.10,2013-08-01 14:46:00,
2013-08-01 11:18:00,73.7,65.0,29.92,SSW,200,4.0,10.0,74,0.00,,,0.00,504,weatherlink.com 1.10,2013-08-01 15:18:00,
2013-08-01 11:35:00,76.3,67.0,29.92,SE,127,2.0,15.0,73,0.00,,,0.00,571,weatherlink.com 1.10,2013-08-01 15:35:00,
2013-08-01 11:51:00,73.8,64.0,29.92,WSW,251,2.0,12.0,72,0.00,,,0.00,295,weatherlink.com 1.10,2013-08-01 15:51:00,
2013-08-01 12:07:00,72.3,64.0,29.92,SE,127,3.0,9.0,75,0.00,,,0.00,123,weatherlink.com 1.10,2013-08-01 16:07:00,
2013-08-01 12:23:00,71.2,65.0,29.92,SSE,155,2.0,8.0,80,0.00,,,0.00,123,weatherlink.com 1.10,2013-08-01 16:23:00,
2013-08-01 12:38:00,68.7,65.0,29.92,West,263,6.0,7.0,88,0.02,,,0.02,83,weatherlink.com 1.10,2013-08-01 16:38:00,
2013-08-01 13:27:00,66.8,66.0,29.91,SE,130,1.0,6.0,96,0.08,,,0.08,137,weatherlink.com 1.10,2013-08-01 17:27:00,
2013-08-01 14:15:00,66.5,65.0,29.90,WSW,250,0.0,3.0,95,0.03,,,0.09,37,weatherlink.com 1.10,2013-08-01 18:15:00,
2013-08-01 15:03:00,65.2,64.0,29.90,SW,218,0.0,4.0,96,0.02,,,0.11,44,weatherlink.com 1.10,2013-08-01 19:03:00,
2013-08-01 16:07:00,64.9,64.0,29.90,SW,219,1.0,9.0,97,0.06,,,0.18,91,weatherlink.com 1.10,2013-08-01 20:07:00,
2013-08-01 16:23:00,64.5,64.0,29.90,WNW,298,3.0,7.0,97,0.09,,,0.22,69,weatherlink.com 1.10,2013-08-01 20:23:00,
2013-08-01 16:39:00,64.3,64.0,29.89,SSW,200,1.0,7.0,98,0.08,,,0.24,88,weatherlink.com 1.10,2013-08-01 20:39:00,
2013-08-01 16:55:00,64.1,64.0,29.89,West,275,1.0,8.0,98,0.08,,,0.25,58,weatherlink.com 1.10,2013-08-01 20:55:00,
2013-08-01 17:12:00,64.2,64.0,29.88,WNW,290,3.0,8.0,98,0.07,,,0.25,44,weatherlink.com 1.10,2013-08-01 21:12:00,
2013-08-01 17:28:00,64.2,64.0,29.88,SSE,153,0.0,5.0,98,0.02,,,0.25,69,weatherlink.com 1.10,2013-08-01 21:28:00,
2013-08-01 17:43:00,64.1,64.0,29.88,SSW,211,4.0,5.0,98,0.00,,,0.25,56,weatherlink.com 1.10,2013-08-01 21:43:00,
2013-08-01 17:59:00,64.3,64.0,29.88,SSE,168,0.0,6.0,98,0.00,,,0.25,53,weatherlink.com 1.10,2013-08-01 21:59:00,
2013-08-01 18:16:00,64.4,64.0,29.88,WSW,242,1.0,3.0,98,0.00,,,0.25,39,weatherlink.com 1.10,2013-08-01 22:16:00,
2013-08-01 18:32:00,64.4,64.0,29.88,South,169,2.0,5.0,98,0.00,,,0.25,28,weatherlink.com 1.10,2013-08-01 22:32:00,
2013-08-01 18:48:00,64.3,64.0,29.88,South,185,0.0,5.0,98,0.00,,,0.25,14,weatherlink.com 1.10,2013-08-01 22:48:00,
2013-08-01 19:19:00,64.0,64.0,29.88,SE,140,1.0,10.0,98,0.00,,,0.25,11,weatherlink.com 1.10,2013-08-01 23:19:00,
2013-08-01 19:35:00,64.0,64.0,29.87,South,180,2.0,4.0,98,0.00,,,0.25,5,weatherlink.com 1.10,2013-08-01 23:35:00,
2013-08-01 19:52:00,63.9,63.0,29.88,SW,228,1.0,3.0,98,0.00,,,0.25,0,weatherlink.com 1.10,2013-08-01 23:52:00,
2013-08-01 20:08:00,63.8,63.0,29.87,SSW,213,0.0,8.0,98,0.01,,,0.26,0,weatherlink.com 1.10,2013-08-02 00:08:00,
2013-08-01 20:24:00,63.7,63.0,29.87,SSW,205,2.0,6.0,98,0.02,,,0.27,0,weatherlink.com 1.10,2013-08-02 00:24:00,
2013-08-01 20:40:00,63.6,63.0,29.87,SSE,159,2.0,7.0,98,0.02,,,0.27,0,weatherlink.com 1.10,2013-08-02 00:40:00,
2013-08-01 20:57:00,63.6,63.0,29.87,SSE,153,0.0,6.0,98,0.02,,,0.27,0,weatherlink.com 1.10,2013-08-02 00:57:00,
2013-08-01 21:12:00,63.6,63.0,29.87,SSW,213,2.0,6.0,98,0.01,,,0.27,0,weatherlink.com 1.10,2013-08-02 01:12:00,
2013-08-01 21:44:00,63.4,63.0,29.86,SSE,159,0.0,6.0,98,0.00,,,0.27,0,weatherlink.com 1.10,2013-08-02 01:44:00,
2013-08-01 22:00:00,63.4,63.0,29.86,SSE,154,0.0,4.0,98,0.00,,,0.27,0,weatherlink.com 1.10,2013-08-02 02:00:00,
2013-08-01 22:17:00,63.4,63.0,29.86,SSW,209,1.0,4.0,98,0.00,,,0.27,0,weatherlink.com 1.10,2013-08-02 02:17:00,
2013-08-01 22:33:00,63.5,63.0,29.86,SSW,208,0.0,4.0,99,0.00,,,0.27,0,weatherlink.com 1.10,2013-08-02 02:33:00,
2013-08-01 22:48:00,63.5,63.0,29.85,South,169,0.0,4.0,99,0.01,,,0.28,0,weatherlink.com 1.10,2013-08-02 02:48:00,
2013-08-01 23:04:00,63.6,63.0,29.84,West,270,0.0,3.0,99,0.01,,,0.28,0,weatherlink.com 1.10,2013-08-02 03:04:00,
2013-08-01 23:20:00,63.8,64.0,29.84,South,181,0.0,4.0,99,0.01,,,0.28,0,weatherlink.com 1.10,2013-08-02 03:20:00,
2013-08-01 23:37:00,63.9,64.0,29.84,South,189,1.0,2.0,99,0.00,,,0.28,0,weatherlink.com 1.10,2013-08-02 03:37:00,
2013-08-01 23:53:00,64.0,64.0,29.84,SSW,205,0.0,1.0,99,0.00,,,0.28,0,weatherlink.com 1.10,2013-08-02 03:53:00,